Lafayette, Louisiana, United States (70501)
Lat: 30.22N, Lon: 92.02W
Wx Zone: LAZ044
Local Info
Past Weather Observations for Today

NOTE: This archive is for the closest National Weather Service station to Lafayette. Information may differ from the station used for current weather conditions.

Click here for Long-term Archive

Time Weather Temperature Dewpoint Humidity Pressure Winds Precip Visibility
14:53
Partly Cloudy
90°F / 32°C 73°F / 23°C 59% 29.98 in
(1015 mb)
S 10.4 mph
(S 17 kph)
- 10SM
13:53
Partly Cloudy
91°F / 33°C 73°F / 23°C 56% 30.01 in
(1016 mb)
S 10.4 mph
(S 17 kph)
- 10SM
12:53
Partly Cloudy
91°F / 33°C 75°F / 24°C 59% 30.01 in
(1016 mb)
SSE 10.4 mph
(SSE 17 kph)
- 10SM
12:39
Partly Cloudy
90°F / 32°C 73°F / 23°C 59% 30.04 in
(1017 mb)
SW 11.5 mph
(SW 19 kph)
- 10SM
11:53
Mostly Cloudy
Thunder Storms
88°F / 31°C 75°F / 24°C 66% 30.04 in
(1017 mb)
SW 6.9 mph
(SW 11 kph)
- 10SM
11:42
Mostly Cloudy
Thunder Storms
90°F / 32°C 75°F / 24°C 63% 30.06 in
(1018 mb)
SW 12.7 mph
(SW 20 kph)
- 10SM
11:22
Partly Cloudy
90°F / 32°C 75°F / 24°C 63% 30.06 in
(1018 mb)
SSE 13.8 mph
(SSE 22 kph)
- 10SM
10:53
Partly Cloudy
Thunder Storms
90°F / 32°C 75°F / 24°C 63% 30.06 in
(1018 mb)
S 16.1 mph
(S 26 kph)
- 10SM
10:31
Partly Cloudy
88°F / 31°C 75°F / 24°C 66% 30.06 in
(1018 mb)
S 9.2 mph
(S 15 kph)
- 10SM
10:22
Mostly Cloudy
88°F / 31°C 75°F / 24°C 66% 30.06 in
(1018 mb)
S 8.1 mph
(S 13 kph)
- 10SM
10:00
Partly Cloudy
86°F / 30°C 75°F / 24°C 70% 30.06 in
(1018 mb)
SSE 8.1 mph
(SSE 13 kph)
- 10SM
09:53
Mostly Cloudy
88°F / 31°C 75°F / 24°C 66% 30.06 in
(1018 mb)
SSE 10.4 mph
(SSE 17 kph)
- 10SM
09:02
Mostly Cloudy
86°F / 30°C 77°F / 25°C 75% 30.06 in
(1018 mb)
S 9.2 mph
(S 15 kph)
- 10SM
08:53
Partly Cloudy
84°F / 29°C 77°F / 25°C 79% 30.06 in
(1018 mb)
SSE 9.2 mph
(SSE 15 kph)
- 10SM
07:53
Clear
82°F / 28°C 79°F / 26°C 89% 30.04 in
(1017 mb)
S 4.6 mph
(S 7 kph)
- 10SM
06:53
Clear
79°F / 26°C 75°F / 24°C 89% 30.04 in
(1017 mb)
SSE 3.5 mph
(SSE 6 kph)
- 10SM
05:53
Partly Cloudy
75°F / 24°C 75°F / 24°C 100% 30.04 in
(1017 mb)
Calm - 7SM
05:35
Partly Cloudy
75°F / 24°C 75°F / 24°C 100% 30.04 in
(1017 mb)
Calm - 8SM
05:11
Mostly Cloudy
75°F / 24°C 75°F / 24°C 100% 30.04 in
(1017 mb)
Calm - 8SM
04:53
Partly Cloudy
75°F / 24°C 75°F / 24°C 100% 30.01 in
(1016 mb)
ENE 3.5 mph
(ENE 6 kph)
- 9SM
04:07
Partly Cloudy
75°F / 24°C 75°F / 24°C 100% 30.01 in
(1016 mb)
Calm - 10SM
03:53
Partly Cloudy
77°F / 25°C 75°F / 24°C 94% 30.01 in
(1016 mb)
Calm - 10SM
02:53
Clear
77°F / 25°C 75°F / 24°C 94% 30.01 in
(1016 mb)
Calm - 10SM
01:53
Clear
79°F / 26°C 75°F / 24°C 89% 29.98 in
(1015 mb)
Calm - 10SM
00:53
Clear
79°F / 26°C 77°F / 25°C 94% 29.98 in
(1015 mb)
SSE 3.5 mph
(SSE 6 kph)
- 10SM
Time Weather Temperature Dewpoint Humidity Pressure Winds Precip Visibility


Weather for websites

WeatherForYou.com, LLC is not responsible for any damages or problems caused by this service. Current weather conditions are obtained from the closest station including government and personal stations which may have varying degrees of accuracy. Weather forecasts are derived from the NOAA NDFD. Like all things, this site belongs to Jesus Christ... He just trusts me to maintain it. If you have any questions or comments email webmaster@weatherforyou.com

Copyright © 2014, WeatherForYou.com LLC. All rights reserved.